Jonestown, PA

11:38 AM EST on January 18, 2017 (GMT -0500)
Muir Army Air Field

Weather History for KMUI - December, 2013

Change the Weather History Date:

Sunday, December 15, 2013

  Actual Average Record
Temperature  
Mean Temperature 33 °F -  
Max Temperature 38 °F 39 °F 61 °F (2015)
Min Temperature 28 °F 28 °F 14 °F (2005)
Degree Days  
Heating Degree Days 32    
Moisture  
Dew Point 29 °F    
Average Humidity 88    
Maximum Humidity 100    
Minimum Humidity 60    
Precipitation  
Precipitation 0.01 in - - ()
Sea Level Pressure  
Sea Level Pressure 29.72 in    
Wind  
Wind Speed 7 mph (West)    
Max Wind Speed 20 mph    
Max Gust Speed 31 mph    
Visibility 10 miles    
Events Rain    
Averages and records for this station are not official NWS values.
T = Trace of Precipitation, MM = Missing Value Source: NWS Daily Summary

Daily Weather History Graph

Daily Weather History Graph

Search for Another Location

Airport or City:

Trip Planner

Search our weather history database for the weather conditions in past years. The results will help you decide how hot, cold, wet, or windy it might be!

Date:

Astronomy

Dec. 15, 2013 Rise Set
Actual Time 7:22 AM EST 4:40 PM EST
Civil Twilight 6:51 AM EST 5:11 PM EST
Nautical Twilight 6:17 AM EST 5:45 PM EST
Astronomical Twilight 5:44 AM EST 6:18 PM EST
Moon 3:43 PM EST (12/15) 5:36 AM EST (12/15)
Length of Visible Light 10h 19m
Length of Day
9h 18m
Waxing Gibbous, 97% of the Moon is Illuminated
Dec 15
Waxing Gibbous
Dec 17
Full
Dec 25
Last Quarter
Jan 1
New
Jan 7
First Quarter

Hourly Weather History & Observations

Time (EST) Temp. Windchill Dew Point Humidity Pressure Visibility Wind Dir Wind Speed Gust Speed Precip Events Conditions
12:08 AM 28.4 °F 24.6 °F 28.4 °F 100% 29.74 in 7.0 mi NNE 3.5 mph - N/A   Light Freezing Drizzle
12:10 AM 28.4 °F 23.3 °F 28.4 °F 100% 29.73 in 7.0 mi NE 4.6 mph - N/A   Light Freezing Drizzle
12:12 AM 28.4 °F 22.2 °F 28.4 °F 100% 29.72 in 8.0 mi NE 5.8 mph - N/A   Light Freezing Drizzle
12:14 AM 28.4 °F 22.2 °F 28.4 °F 100% 29.72 in 9.0 mi NE 5.8 mph - N/A   Light Freezing Drizzle
12:25 AM 28.4 °F 24.6 °F 28.4 °F 100% 29.73 in 10.0 mi Variable 3.5 mph - N/A   Overcast
12:29 AM 28.4 °F 24.6 °F 28.4 °F 100% 29.73 in 10.0 mi NE 3.5 mph - N/A   Overcast
12:31 AM 28.4 °F - 28.4 °F 100% 29.73 in 10.0 mi NNE 2.3 mph - N/A   Overcast
12:35 AM 30.2 °F 25.4 °F 30.2 °F 100% 29.72 in 10.0 mi NNE 4.6 mph - N/A   Overcast
12:58 AM 28.9 °F 23.9 °F 28.9 °F 100% 29.71 in 10.0 mi NNE 4.6 mph - 0.00 in   Overcast
1:58 AM 28.4 °F 23.3 °F 28.0 °F 99% 29.68 in 10.0 mi NNE 4.6 mph - 0.01 in   Overcast
2:16 AM 28.4 °F 23.3 °F 28.4 °F 100% 29.66 in 10.0 mi North 4.6 mph - N/A   Overcast
2:58 AM 28.6 °F 22.4 °F 28.2 °F 99% 29.68 in 10.0 mi NNE 5.8 mph - N/A   Overcast
3:58 AM 28.9 °F 25.2 °F 28.8 °F 99% 29.63 in 10.0 mi ENE 3.5 mph - N/A   Overcast
4:58 AM 29.1 °F - 29.1 °F 100% 29.64 in 10.0 mi NNE 2.3 mph - N/A   Overcast
5:33 AM 28.4 °F - 28.4 °F 100% 29.62 in 10.0 mi WNW 2.3 mph - N/A   Overcast
5:34 AM 28.4 °F - 28.4 °F 100% 29.62 in 10.0 mi WNW 1.2 mph - N/A   Light Freezing Rain
5:44 AM 28.4 °F - 28.4 °F 100% 29.63 in 10.0 mi WSW 2.3 mph - N/A   Overcast
5:58 AM 29.3 °F 23.2 °F 29.3 °F 100% 29.65 in 10.0 mi West 5.8 mph - 0.00 in   Overcast
6:04 AM 28.4 °F 22.2 °F 28.4 °F 100% 29.63 in 10.0 mi West 5.8 mph - N/A   Overcast
6:52 AM 30.2 °F 25.4 °F 30.2 °F 100% 29.64 in 10.0 mi SW 4.6 mph - N/A   Overcast
6:58 AM 29.5 °F 25.9 °F 29.5 °F 100% 29.68 in 10.0 mi WSW 3.5 mph - N/A   Overcast
7:00 AM 28.4 °F 24.6 °F 28.4 °F 100% 29.65 in 10.0 mi WSW 3.5 mph - N/A   Overcast
7:06 AM 28.4 °F 23.3 °F 28.4 °F 100% 29.64 in 10.0 mi SW 4.6 mph - N/A   Overcast
7:58 AM 29.5 °F 23.4 °F 29.5 °F 100% 29.67 in 10.0 mi SSW 5.8 mph - N/A   Overcast
8:58 AM 32.0 °F 28.7 °F 31.8 °F 99% 29.68 in 10.0 mi SW 3.5 mph - N/A   Overcast
9:28 AM 33.8 °F 27.0 °F 32.0 °F 93% 29.67 in 10.0 mi WSW 8.1 mph - N/A   Overcast
9:30 AM 33.8 °F 27.7 °F 32.0 °F 93% 29.67 in 10.0 mi West 6.9 mph - N/A   Overcast
9:44 AM 33.8 °F 24.8 °F 33.8 °F 100% 29.68 in 10.0 mi West 12.7 mph 18.4 mph N/A   Overcast
9:54 AM 33.8 °F 23.5 °F 33.8 °F 100% 29.69 in 10.0 mi West 16.1 mph 24.2 mph N/A   Overcast
9:58 AM 34.3 °F 24.2 °F 34.2 °F 99% 29.72 in 10.0 mi West 16.1 mph 24.2 mph 0.00 in   Overcast
10:12 AM 33.8 °F 27.0 °F 33.8 °F 100% 29.69 in 10.0 mi WNW 8.1 mph - N/A   Overcast
10:36 AM 35.6 °F 28.6 °F 35.6 °F 100% 29.70 in 10.0 mi West 9.2 mph - N/A   Overcast
10:46 AM 35.6 °F 29.9 °F 35.6 °F 100% 29.70 in 10.0 mi WSW 6.9 mph - N/A   Mostly Cloudy
10:50 AM 35.6 °F 29.9 °F 35.6 °F 100% 29.70 in 10.0 mi WSW 6.9 mph - N/A   Mostly Cloudy
10:58 AM 36.0 °F 31.1 °F 35.6 °F 99% 29.73 in 10.0 mi WSW 5.8 mph - 0.00 in   Mostly Cloudy
11:58 AM 37.0 °F 28.5 °F 34.2 °F 89% 29.73 in 10.0 mi WSW 13.8 mph - N/A   Overcast
12:22 PM 37.4 °F 28.5 °F 33.8 °F 87% 29.70 in 10.0 mi West 15.0 mph 19.6 mph N/A   Overcast
12:24 PM 37.4 °F 29.3 °F 32.0 °F 81% 29.69 in 10.0 mi West 12.7 mph 24.2 mph N/A   Overcast
12:42 PM 37.4 °F 27.2 °F 32.0 °F 81% 29.69 in 10.0 mi West 19.6 mph 31.1 mph N/A   Mostly Cloudy
12:58 PM 38.7 °F 30.1 °F 29.3 °F 69% 29.71 in 10.0 mi WNW 15.0 mph 28.8 mph N/A   Partly Cloudy
1:34 PM 37.4 °F 29.8 °F 28.4 °F 70% 29.70 in 10.0 mi West 11.5 mph - N/A   Overcast
1:52 PM 37.4 °F 29.8 °F 28.4 °F 70% 29.71 in 10.0 mi West 11.5 mph 18.4 mph N/A   Overcast
1:58 PM 37.6 °F 29.6 °F 28.6 °F 70% 29.73 in 10.0 mi West 12.7 mph 24.2 mph N/A   Overcast
2:12 PM 37.4 °F 30.3 °F 28.4 °F 70% 29.72 in 10.0 mi WNW 10.4 mph 28.8 mph N/A   Overcast
2:18 PM 37.4 °F 27.8 °F 28.4 °F 70% 29.72 in 10.0 mi West 17.3 mph - N/A   Overcast
2:58 PM 36.9 °F 29.1 °F 27.5 °F 69% 29.76 in 10.0 mi West 11.5 mph 28.8 mph N/A   Overcast
3:58 PM 35.4 °F 24.9 °F 24.6 °F 65% 29.81 in 10.0 mi WNW 18.4 mph 27.6 mph N/A   Overcast
4:20 PM 35.6 °F 28.0 °F 24.8 °F 65% 29.80 in 10.0 mi WNW 10.4 mph 23.0 mph N/A   Overcast
4:32 PM 33.8 °F 25.3 °F 24.8 °F 70% 29.80 in 10.0 mi WNW 11.5 mph 23.0 mph N/A Rain Light Rain
4:41 PM 33.8 °F 24.8 °F 24.8 °F 70% 29.80 in 10.0 mi West 12.7 mph 21.9 mph N/A   Overcast
4:51 PM 33.8 °F 22.5 °F 24.8 °F 70% 29.81 in 10.0 mi West 19.6 mph 26.5 mph N/A   Overcast
4:58 PM 33.8 °F 22.5 °F 24.4 °F 69% 29.83 in 10.0 mi West 19.6 mph 26.5 mph 0.00 in   Overcast
5:58 PM 32.4 °F 24.6 °F 20.7 °F 62% 29.86 in 10.0 mi West 9.2 mph 23.0 mph N/A   Mostly Cloudy
6:58 PM 31.3 °F 22.1 °F 20.1 °F 63% 29.88 in 10.0 mi WSW 11.5 mph - N/A   Mostly Cloudy
7:58 PM 30.0 °F 21.7 °F 20.3 °F 67% 29.88 in 10.0 mi SW 9.2 mph - N/A   Overcast
8:58 PM 29.7 °F 23.7 °F 22.1 °F 73% 29.88 in 10.0 mi SW 5.8 mph - N/A   Overcast
9:58 PM 30.6 °F 23.1 °F 21.9 °F 70% 29.88 in 10.0 mi SW 8.1 mph - N/A   Overcast
10:58 PM 29.7 °F 22.8 °F 22.3 °F 74% 29.89 in 10.0 mi SW 6.9 mph - N/A   Scattered Clouds
11:58 PM 31.8 °F 23.3 °F 19.4 °F 60% 29.90 in 10.0 mi West 10.4 mph - N/A   Mostly Cloudy